Location: Agendoh
(31.0664°N, 8.9343°W)
Time: 07:31:45
(UTC+00:00)

SJ 16-02 - Pass Details

Date: 06 December 2021
Orbit: 605 x 616 km, 75.0° (Epoch: 24 January)

Event Time Altitude Azimuth Distance (km) Brightness Sun altitude
Rises 05:02:11 0° 157° (SSE) 2,850 5.2 -28.9°
Reaches altitude 10° 05:05:06 10° 136° (SE) 1,949 4.6 -28.3°
Maximum altitude 05:07:50 16° 97° (E) 1,571 4.2 -27.7°
Drops below altitude 10° 05:10:34 10° 58° (ENE) 1,954 4.5 -27.1°
Sets 05:13:29 0° 37° (NE) 2,860 5.1 -26.5°
